DW5678 Kavala GR current weather conditions

sailwx.info

Wind from 132 at 4 knots gusting 8

Air temperature 26.7° C
Dewpoint 18.0° C

Last reported at 2020-Aug-15 09:58 UTC.
Time now 2020-Aug-15 11:01 UTC

Location: N 40°56' E 024°24'.
View on Google Maps.

See reports from other nearby stations

  
Tides and Currents Weather Stations Pressure Air Temp Water Temp Dewpoint Dewpoint Depression Visibility Wind Speed Wind Dir Waves Ship Positions
date/time (UTC)wind fromknots sea level pressurealtimeterstation pressurevisibilityair tempwater tempwave heightnotes
2020-Aug-15 09:58 132 4 gusting 8 26.7
2020-Aug-15 09:48 140 1 gusting 10 26.7
2020-Aug-15 09:38 136 5 gusting 8 26.7
2020-Aug-15 09:28 117 4 gusting 12 26.7
2020-Aug-15 09:18 087 4 gusting 7 26.7
2020-Aug-15 09:08 075 1 gusting 6 26.7
2020-Aug-15 08:58 055 1 gusting 7 26.1
2020-Aug-15 08:48 129 1 gusting 7 26.7
2020-Aug-15 08:38 104 1 gusting 6 26.7
2020-Aug-15 08:28 122 1 gusting 6 26.7
2020-Aug-15 08:18 143 0 gusting 5 27.2
2020-Aug-15 08:08 055 1 gusting 5 26.7
2020-Aug-15 07:58 064 1 gusting 6 26.1
2020-Aug-15 07:48 100 0 gusting 5 26.1
2020-Aug-15 07:38 076 2 gusting 7 26.7
2020-Aug-15 07:28 137 1 gusting 6 26.1
2020-Aug-15 07:18 056 1 gusting 5 26.1
2020-Aug-15 07:08 055 2 gusting 8 26.1
2020-Aug-15 06:58 064 2 gusting 6 25.6
2020-Aug-15 06:48 060 1 gusting 6 25.6
2020-Aug-15 06:38 129 2 gusting 6 25.6
2020-Aug-15 06:28 088 2 gusting 6 25.6
2020-Aug-15 06:18 090 1 gusting 6 25.6
2020-Aug-15 06:08 061 0 gusting 6 25.6
2020-Aug-15 05:58 085 1 gusting 5 25.6
2020-Aug-15 05:48 107 0 gusting 6 25.6
2020-Aug-15 05:38 098 1 gusting 6 25.0
2020-Aug-15 05:28 117 0 gusting 5 25.0
2020-Aug-15 05:18 117 25.0
2020-Aug-15 05:08 069 25.0
2020-Aug-15 04:58 052 0 gusting 5 25.0
2020-Aug-15 04:48 062 0 gusting 5 25.0
2020-Aug-15 04:38 037 1 gusting 5 25.0
2020-Aug-15 04:28 035 0 gusting 4 25.0
2020-Aug-15 04:18 034 0 gusting 4 24.4
2020-Aug-15 04:08 034 2 gusting 4 24.4
2020-Aug-15 03:58 034 0 gusting 2 24.4
2020-Aug-15 03:48 034 24.4
2020-Aug-15 03:38 034 24.4
2020-Aug-15 03:28 034 24.4
2020-Aug-15 03:18 034 24.4
2020-Aug-15 03:08 034 24.4
2020-Aug-15 02:58 034 0 gusting 5 24.4
2020-Aug-15 02:48 033 0 gusting 4 24.4
2020-Aug-15 02:38 033 3 gusting 5 25.0
2020-Aug-15 02:28 042 1 gusting 4 25.0
2020-Aug-15 02:18 035 25.0
2020-Aug-15 02:08 033 3 gusting 6 25.0
2020-Aug-15 01:58 030 2 gusting 6 25.0
2020-Aug-15 01:48 033 1 gusting 5 25.0
2020-Aug-15 01:38 033 0 gusting 6 25.0
2020-Aug-15 01:28 043 1 gusting 4 25.0
2020-Aug-15 01:18 039 0 gusting 4 25.0
2020-Aug-15 01:08 049 25.0
2020-Aug-15 00:58 040 25.0
2020-Aug-15 00:48 040 25.0
2020-Aug-15 00:38 040 24.4
2020-Aug-15 00:28 040 24.4
2020-Aug-15 00:18 040 24.4
2020-Aug-15 00:08 040 25.0
2020-Aug-14 23:58 040 25.0
2020-Aug-14 23:48 040 25.0
2020-Aug-14 23:38 040 25.0
2020-Aug-14 23:28 040 25.0
2020-Aug-14 23:18 040 0 gusting 2 25.0
2020-Aug-14 23:08 041 25.0
2020-Aug-14 22:58 019 25.0
2020-Aug-14 22:48 355 25.0
2020-Aug-14 22:38 355 24.4
2020-Aug-14 22:28 355 25.0
2020-Aug-14 22:18 355 25.0
2020-Aug-14 22:08 355 25.0
2020-Aug-14 21:58 025 1 gusting 5 25.0
2020-Aug-14 21:48 059 1 gusting 6 25.0
2020-Aug-14 21:38 205 25.6
2020-Aug-14 21:28 227 26.1
2020-Aug-14 21:18 227 25.6
2020-Aug-14 21:08 227 25.6
2020-Aug-14 20:58 227 25.6
2020-Aug-14 20:48 227 25.6
2020-Aug-14 20:38 227 25.0
2020-Aug-14 20:28 227 25.0
2020-Aug-14 20:18 227 25.0
2020-Aug-14 20:08 227 25.0
2020-Aug-14 19:58 227 25.0
2020-Aug-14 19:48 227 25.6
2020-Aug-14 19:38 227 25.0
2020-Aug-14 19:28 227 25.6
2020-Aug-14 19:18 227 25.6
2020-Aug-14 19:08 227 25.6
2020-Aug-14 18:58 227 25.6
2020-Aug-14 18:48 227 25.6
2020-Aug-14 18:38 227 25.6
2020-Aug-14 18:28 227 25.6
2020-Aug-14 18:18 227 26.1
2020-Aug-14 18:08 227 25.6
2020-Aug-14 17:58 227 0 gusting 1 26.1
2020-Aug-14 17:48 227 26.1
2020-Aug-14 17:38 227 25.6
2020-Aug-14 17:28 227 26.1
2020-Aug-14 17:18 227 26.1
2020-Aug-14 17:08 227 26.1
2020-Aug-14 16:58 227 26.1
2020-Aug-14 16:48 227 26.1
2020-Aug-14 16:38 227 26.7
2020-Aug-14 16:28 227 26.7
2020-Aug-14 16:18 227 0 gusting 2 26.7
2020-Aug-14 16:08 227 0 gusting 2 26.1
2020-Aug-14 15:58 227 0 gusting 4 26.7
2020-Aug-14 15:48 195 26.7
2020-Aug-14 15:38 215 1 gusting 5 26.7
2020-Aug-14 15:28 211 2 gusting 6 26.7
2020-Aug-14 15:18 228 4 gusting 6 26.7
2020-Aug-14 15:08 219 0 gusting 4 27.2
2020-Aug-14 14:58 235 0 gusting 5 27.2
2020-Aug-14 14:48 135 1 gusting 4 27.2
2020-Aug-14 14:38 235 2 gusting 6 27.2
2020-Aug-14 14:28 221 1 gusting 4 27.2
2020-Aug-14 14:18 169 0 gusting 5 27.8
2020-Aug-14 14:08 235 0 gusting 6 27.2
2020-Aug-14 13:58 107 0 gusting 5 27.8
2020-Aug-14 13:48 210 2 gusting 6 27.8
2020-Aug-14 13:38 173 2 gusting 6 27.8
2020-Aug-14 13:28 189 1 gusting 4 27.8
2020-Aug-14 13:18 202 2 gusting 6 27.2
2020-Aug-14 13:08 225 2 gusting 6 27.2
2020-Aug-14 12:58 139 0 gusting 6 27.8
2020-Aug-14 12:48 217 1 gusting 8 27.8
2020-Aug-14 12:38 218 4 gusting 6 28.3
2020-Aug-14 12:28 224 1 gusting 6 28.3
2020-Aug-14 12:18 189 1 gusting 6 28.3
2020-Aug-14 12:08 199 2 gusting 10 27.2
2020-Aug-14 11:58 230 4 gusting 6 27.8
2020-Aug-14 11:48 236 2 gusting 8 27.8
2020-Aug-14 11:38 207 5 gusting 8 27.2
2020-Aug-14 11:28 214 2 gusting 7 27.8
2020-Aug-14 11:18 235 4 gusting 7 27.8
2020-Aug-14 11:08 194 1 gusting 6 27.8
2020-Aug-14 10:58 209 2 gusting 6 27.8
2020-Aug-14 10:48 221 2 gusting 6 28.3
2020-Aug-14 10:38 140 0 gusting 6 28.3
2020-Aug-14 10:28 225 0 gusting 5 28.3
2020-Aug-14 10:18 180 1 gusting 6 27.8
2020-Aug-14 10:08 193 2 gusting 6 27.2
2020-Aug-14 09:58 193 1 gusting 6 27.8
2020-Aug-14 09:48 226 4 gusting 6 26.7
2020-Aug-14 09:38 165 1 gusting 6 27.2
2020-Aug-14 09:28 232 2 gusting 5 27.2
2020-Aug-14 09:18 186 2 gusting 6 27.2
2020-Aug-14 09:08 123 0 gusting 4 27.2
2020-Aug-14 08:58 112 1 gusting 5 26.7
2020-Aug-14 08:48 147 1 gusting 6 26.7
2020-Aug-14 08:38 131 2 gusting 5 26.7
2020-Aug-14 08:28 118 1 gusting 6 26.1
2020-Aug-14 08:18 135 1 gusting 7 26.1
2020-Aug-14 08:08 136 2 gusting 5 26.1
2020-Aug-14 07:58 140 2 gusting 7 26.1
2020-Aug-14 07:48 047 1 gusting 6 26.1
2020-Aug-14 07:38 134 3 gusting 6 26.1
2020-Aug-14 07:28 082 1 gusting 6 26.1
2020-Aug-14 07:18 123 0 gusting 6 26.1
2020-Aug-14 07:08 140 2 gusting 6 25.6
2020-Aug-14 06:58 144 3 gusting 7 26.1
2020-Aug-14 06:48 056 1 gusting 6 26.1
2020-Aug-14 06:38 049 0 gusting 6 26.1
2020-Aug-14 06:28 079 2 gusting 5 26.1
2020-Aug-14 06:18 056 0 gusting 6 26.1
2020-Aug-14 06:08 059 1 gusting 5 25.6
2020-Aug-14 05:58 131 0 gusting 6 25.6
2020-Aug-14 05:48 053 1 gusting 6 25.6
2020-Aug-14 05:38 052 0 gusting 6 25.6
2020-Aug-14 05:28 058 2 gusting 6 25.6
2020-Aug-14 05:18 046 0 gusting 6 25.6
2020-Aug-14 05:08 048 1 gusting 4 25.0
2020-Aug-14 04:58 046 0 gusting 5 25.0
2020-Aug-14 04:48 066 0 gusting 5 25.0
2020-Aug-14 04:38 050 1 gusting 5 25.0
2020-Aug-14 04:28 046 24.4
2020-Aug-14 04:18 046 1 gusting 2 24.4
2020-Aug-14 04:08 046 24.4
2020-Aug-14 03:58 046 24.4
2020-Aug-14 03:48 046 24.4
2020-Aug-14 03:38 046 24.4
2020-Aug-14 03:28 046 24.4
2020-Aug-14 03:18 046 24.4
2020-Aug-14 03:08 046 24.4
2020-Aug-14 02:58 046 24.4
2020-Aug-14 02:48 046 24.4
2020-Aug-14 02:38 046 24.4
2020-Aug-14 02:28 046 24.4
2020-Aug-14 02:18 046 24.4
2020-Aug-14 02:08 046 24.4
2020-Aug-14 01:58 046 24.4
2020-Aug-14 01:48 046 24.4
2020-Aug-14 01:38 046 24.4
2020-Aug-14 01:28 046 24.4
2020-Aug-14 01:18 046 25.0
2020-Aug-14 01:08 039 2 gusting 4 24.4
2020-Aug-14 00:58 044 1 gusting 4 25.0
2020-Aug-14 00:48 024 25.0
2020-Aug-14 00:38 024 0 gusting 2 25.0
2020-Aug-14 00:28 025 25.0
2020-Aug-14 00:18 021 0 gusting 5 25.6
2020-Aug-14 00:08 044 2 gusting 5 25.6
2020-Aug-13 23:58 040 4 gusting 6 25.6
2020-Aug-13 23:08 038 1 gusting 6 26.1
2020-Aug-13 22:58 049 2 gusting 6 26.1
2020-Aug-13 22:48 049 2 gusting 6 26.1
2020-Aug-13 22:38 046 4 gusting 7 26.1
2020-Aug-13 22:28 049 5 gusting 10 26.1
2020-Aug-13 22:18 038 6 gusting 8 26.1
2020-Aug-13 22:08 049 5 gusting 7 26.1
2020-Aug-13 21:58 057 2 gusting 6 25.6
2020-Aug-13 21:48 005 25.6
2020-Aug-13 21:38 005 25.0
2020-Aug-13 21:28 005 25.6
2020-Aug-13 21:18 005 25.6
2020-Aug-13 21:08 005 25.6
2020-Aug-13 20:58 005 25.6
2020-Aug-13 20:48 010 25.6
2020-Aug-13 20:38 015 0 gusting 5 26.1
2020-Aug-13 20:28 032 25.6
2020-Aug-13 20:18 013 25.6
2020-Aug-13 20:08 309 25.6
2020-Aug-13 19:58 333 0 gusting 6 25.6
2020-Aug-13 19:48 037 1 gusting 5 25.6
2020-Aug-13 19:38 150 0 gusting 5 26.1
2020-Aug-13 19:28 152 26.1
2020-Aug-13 19:18 152 26.7
2020-Aug-13 19:08 156 2 gusting 8 27.8
2020-Aug-13 18:58 036 2 gusting 10 27.2
2020-Aug-13 18:48 352 2 gusting 6 27.8
2020-Aug-13 18:38 311 1 gusting 6 27.2
2020-Aug-13 18:28 292 0 gusting 5 26.7
2020-Aug-13 18:18 098 0 gusting 6 27.8
2020-Aug-13 18:08 151 1 gusting 5 27.8
2020-Aug-13 17:58 056 1 gusting 8 27.8
2020-Aug-13 17:48 028 2 gusting 8 27.8
2020-Aug-13 17:38 034 0 gusting 6 27.8
2020-Aug-13 17:28 036 0 gusting 7 27.2
2020-Aug-13 17:18 337 1 gusting 8 27.2
2020-Aug-13 17:08 017 4 gusting 10 27.2
2020-Aug-13 16:58 355 2 gusting 7 27.2
2020-Aug-13 16:48 291 2 gusting 8 27.2
2020-Aug-13 16:38 034 5 gusting 12 26.1
2020-Aug-13 16:28 008 4 gusting 13 26.1
2020-Aug-13 16:18 358 6 gusting 14 26.1
2020-Aug-13 16:08 006 4 gusting 11 25.6
2020-Aug-13 15:58 345 2 gusting 13 25.0
2020-Aug-13 15:48 338 4 gusting 12 25.0
2020-Aug-13 15:38 349 6 gusting 15 23.9
2020-Aug-13 15:28 014 6 gusting 13 23.9
2020-Aug-13 15:18 347 7 gusting 15 23.9
2020-Aug-13 15:08 027 5 gusting 17 24.4
2020-Aug-13 14:58 019 5 gusting 13 25.6
2020-Aug-13 14:48 25.6
2020-Aug-13 14:38 019 6 gusting 13 25.6
2020-Aug-13 14:28 046 1 gusting 7 26.1
2020-Aug-13 14:18 286 26.1
2020-Aug-13 14:08 255 3 gusting 6 25.0
2020-Aug-13 13:58 304 25.6
2020-Aug-13 13:48 258 3 gusting 6 26.1
2020-Aug-13 13:38 346 6 gusting 12 25.6
2020-Aug-13 13:28 004 6 gusting 12 26.7
2020-Aug-13 13:18 040 8 gusting 13 29.4
2020-Aug-13 13:08 113 2 gusting 5 28.9
2020-Aug-13 12:58 173 0 gusting 5 28.9
2020-Aug-13 12:48 141 1 gusting 4 28.3
2020-Aug-13 12:38 229 2 gusting 6 28.9
2020-Aug-13 12:28 130 0 gusting 6 28.9
2020-Aug-13 12:18 188 1 gusting 5 28.9
2020-Aug-13 12:08 229 1 gusting 6 28.9
2020-Aug-13 11:58 237 3 gusting 6 28.3
2020-Aug-13 11:48 231 2 gusting 6 29.4
2020-Aug-13 11:38 218 1 gusting 6 28.9
2020-Aug-13 11:28 167 0 gusting 6 27.8
2020-Aug-13 11:18 194 1 gusting 5 28.9
2020-Aug-13 11:08 146 1 gusting 4 28.3